"Pseudo-MPEC" for C3LUPN2

Created 2020 Oct 18 23:07:21 UT using Find_Orb

Click here for an explanation of pseudo-MPECs

 
 Astrometry: 
     C3LUPN2  C2020 10 17s0Bu+nfoBSpJ!gIXFho7y7qn/EQ7s;3nF\4o$AfXlgZYj;k7]:(]F52
     C3LUPN2  C2020 10 18.11948620 41 01.56 -05 30 27.8    ~AI3b 19.26GVNEOCPG96
     C3LUPN2  C2020 10 18.12515520 40 54.71 -05 27 25.9    ~AI3b       VNEOCPG96
     C3LUPN2  C2020 10 18.13080520 40 47.97 -05 24 26.8    ~AI3b 18.92GVNEOCPG96
     C3LUPN2  C2020 10 18.13644320 40 41.17 -05 21 25.5    ~AI3b 18.81GVNEOCPG96
     C3LUPN2 mC2020 10 18.17875820 39 50.41 -04 58 45.8    ~AI4b 18.76GVNEOCPI52
     C3LUPN2 mC2020 10 18.17894620 39 50.19 -04 58 39.8    ~AI4b 18.72GVNEOCPI52
     C3LUPN2 mC2020 10 18.17913420 39 49.98 -04 58 33.6    ~AI4b 18.44GVNEOCPI52
     C3LUPN2 mC2020 10 18.17932120 39 49.77 -04 58 27.6    ~AI4b 18.57GVNEOCPI52
     C3LUPN2 mC2020 10 18.21679020 39 05.18 -04 38 14.4    ~AI5M 18.98GVNEOCPI52
     C3LUPN2 mC2020 10 18.21698020 39 04.96 -04 38 08.1    ~AI5M 18.95GVNEOCPI52
     C3LUPN2 mC2020 10 18.21716820 39 04.76 -04 38 02.2    ~AI5M       VNEOCPI52
     C3LUPN2 IC2020 10 18+T+;S\,LwttwV/m4*Ylv/kAT\%obrGoL)VRPM#,6J@@)fq^lO4[eL01
     C3LUPN2 KC2020 10 18m*)U*V(_0Z?`avlwGf*RihxIq2*6%h@4svjM$)]8HwECwF/oP;8sL01
     C3LUPN2 pC2020 10 189bDF[_5!tbw5UHLmJ#mIFEo/nJaM=Iqwo,]*-Astrometry1l^O[L01
     C3LUPN2 KC2020 10 18mQaaVd.%0-O?V)C=V;fM854u@A`fZ6HMAchQ(QW8^`2:i/1E$QL=L01
     C3LUPN2 KC2020 10 18g`l-\SspCuw9fpA='3UgyJ0/[Ug3[*vQa2^4([d%y#EIxP1rq1B'595
     C3LUPN2 KC2020 10 18tW6aDLFredacted;DHw_Z5tp8AooAsm]#XUuCQV=/GYSs%RuV7/E104
     C3LUPN2 KC2020 10 18eK;WFdLg]sKaR6u2FmAmLN@+;;r$`7OUov?u=Wohr!I.P[TCVI*B204
     C3LUPN2 KC2020 10 18.18I]ctFrCB8?9Ih(AC+)sf7=B9@6O7NxtDIj4lf1OclickSbJvm595
     C3LUPN2 KC2020 10 18Sp3Eg/^-5N\M5!GQJ7?=$F(^O\FT29a(L,o5EWJs9QPN-wYWhyNF104
     C3LUPN2 KC2020 10 18y1*NGP\YCDIPe^OBcI\:S0G*DYrCasBrWJ?b-S++o/5Zme#0h_KA595
     C3LUPN2 KC2020 10 18IL%m_wjGJfs(79herejxlO]a^ru,7xY]AaH%.-Wy.[e(cVu-.A]k204
     C3LUPN2 KC2020 10 18\uW'UVx5msi.AI=)Zpk;5sYlHfTC#%y]ZMmX:,,IM/@VC6H^Kuqq104
     C3LUPN2 KC2020 10 18x^A;G:x^O%+aBEm(HAkhQ4XSL^)D/'(5HCoI8magMlNolBwn=h7H160
     C3LUPN2 KC2020 10 18Vo(S+Lcf.RhRH8DoSeB9kl5B:,0QUfGWoTuq(*JJ6LbZApEp8/(R204
     C3LUPN2 KC2020 10 18V4.C]/T,=p'iR19#G??[:iZ2_MB!UN2CDtA')ugFIix4\U6!Oqpr160
     C3LUPN2 KC2020 10 18,(XY$34RE1w?RX(WNIF])6s^eET]Q]o0;]xn(cEWXDW5LZfor\R?160
     C3LUPN2 KC2020 10 18.82321920 27 46.05 +01 03 15.6    ~AIKM 18.9 GVNEOCPI93
     C3LUPN2 KC2020 10 18hkW-62EgI:wdwO2Z91\UinS*%[@Wy_j-'(RH+GJDO6XhHnw7cPkm958
     C3LUPN2 KC2020 10 18/L3A%LAJB(+K[S0(SZ)qexplanation_K?SI0SUc=(P^-VY1y;$v958
     C3LUPN2 KC2020 10 18.83222120 27 34.50 +01 08 33.6    ~AIKM 19.3 GVNEOCPI93
     C3LUPN2 KC2020 10 18p4X#I_,@x29Q[#HhXe+:pCLV3KrPOnF'Igf0-BIWWKE57Q*at,3+958

Station data:
(104) San Marcello Pistoiese  (N44.063037 E10.804200)  Italy. 0.40-m f/5
   reflector.
(160) Castelmartini  (N43.823061 E10.841440)  Italy.
(204) Schiaparelli Observatory  (N45.867933 E8.770800)  Italy.  Observer L.
   Buzzi. 0.60-m f/4.64 Newtonian + CCD.
(595) Farra d'Isonzo  (N45.915734 E13.525780)  Italy.  Observers L.
   Bittesini, F. Fabris, E. Pettarin, F. Piani. Measurer E. Pettarin. 0.30-m
   f/4.5 reflector + CCD.
(958) Observatoire de Dax  (N43.693327 W1.030390)  France.
(F52) Pan-STARRS 2, Haleakala  (N20.707384 W156.255910)  US/Hawaii. 1.8-m
   Ritchey-Chrétien + CCD.
(G96) Mt. Lemmon Survey  (N32.442754 W110.788720)  US/Arizona.  Observers T.
   A. Pruyne, B. M. Africano, E. J. Christensen, G. A. Farneth, D. C. Fuls,
   A. R. Gibbs, A. D. Grauer, H. Gröller, J. A. Johnson, R. A. Kowalski, S.
   M. Larson, G. J. Leonard, D. Rankin, R. L. Seaman, F. C. Shelly. 1.5-m
   reflector + 10K CCD.
(I52) Steward Observatory, Mt. Lemmon Station  (N32.442547 W110.788920)
   US/Arizona.  Observers T. A. Pruyne, B. M. Africano, E. J. Christensen, G.
   A. Farneth, D. C. Fuls, A. R. Gibbs, A. D. Grauer, H. Gröller, J. A.
   Johnson, R. A. Kowalski, S. M. Larson, G. J. Leonard, D. Rankin, R. L.
   Seaman, F. C. Shelly. 1.0-m reflector + CCD.
(I93) St Pardon de Conques  (N44.558710 W0.203000)  France.  Observer F.
   Losse. 0.40-m f/3.7 reflector + CCD.
(L01) Višnjan Observatory, Tičan  (N45.290900 E13.749300)  Croatia.
   Observers K. Korlević, E. Pettarin. Measurer E. Pettarin. 1.0-m f/2.9
   reflector + CCD.

Orbital elements:  C3LUPN2
   Perihelion 2020 Nov 6.989620 +/- 0.00926 TT = 23:45:03 (JD 2459160.489620)
Epoch 2020 Oct 18.0 TT = JDT 2459140.5   Earth MOID: 0.0086   AutoNEOCP
M 350.72525869 +/- 0.023            (J2000 ecliptic)
n   0.46397786 +/- 0.000962         Peri.   25.23612 +/- 0.0036
a   1.65248633 +/- 0.00228          Node    21.93143 +/- 0.0027
e   0.4073881 +/- 0.000828          Incl.   10.77302 +/- 0.016
P   2.12/775.88d           H 24.6   G  0.15   U  8.1  
q 0.97928294 +/- 1.41e-5    Q 2.32568972 +/- 0.00459
From 33 observations 2020 Oct. 17-18 (37.8 hr); mean residual 0".42
Residuals in arcseconds: 
201017 F52  .21+  .06+    201018 I52  .34+  .43-    201018 204  .19-  .38-    
201018 G96  .16-  .10+    201018 L01  .24-  .07-    201018 104  .25+  .05-    
201018 G96  .67-  1.0+    201018 L01  .37-  .53+    201018 160  .66+  .45-    
201018 G96  .13+  .51-    201018 L01  .44-  .79+    201018 204  .01-  .02+    
201018 G96  .19-  .37+    201018 L01  .03-  .81+    201018 160  .33+  .27-    
201018 I52  .24-  .21-    201018 595  .14-  .52-    201018 160  .93-  .56+    
201018 I52  .17-  .28-    201018 104  .29+  .15-    201018 I93  .50-  .50+    
201018 I52  .05+  .15-    201018 204  .09+  .39-    201018 958  .52-  .42-    
201018 I52  .26+  .18-    201018 595  .58+  .32-    201018 958  .55+  .57+    
201018 I52  .06-  .35-    201018 104  .57+  .10+    201018 I93  .22-  .63+    
201018 I52  .01+  .22-    201018 595  .77+  .80-    201018 958  .15-  .39-    

Ephemerides (geocentric):
Date (UTC) HH   RA              Dec         delta   r     elong  mag " sig PA
---- -- -- --  -------------   -----------  ------ ------ -----  --- ---- ---
2020 10 18 23  20 25 10.533   +02 27 29.46  .02385 1.0016 102.7 19.2 .509   5
2020 10 19 00  20 24 20.463   +02 52 25.92  .02379 1.0015 102.5 19.2 .521   4
2020 10 19 01  20 23 30.132   +03 17 29.14  .02374 1.0014 102.3 19.2 .534   3
2020 10 19 02  20 22 39.540   +03 42 38.96  .02369 1.0013 102.1 19.2 .548   2
2020 10 19 03  20 21 48.685   +04 07 55.19  .02364 1.0012 102.0 19.2 .562   1
2020 10 19 04  20 20 57.567   +04 33 17.64  .02359 1.0011 101.8 19.2 .577   0
2020 10 19 05  20 20 06.185   +04 58 46.14  .02354 1.0010 101.6 19.2 .593 179
2020 10 19 06  20 19 14.538   +05 24 20.48  .02350 1.0009 101.4 19.2 .610 178
2020 10 19 07  20 18 22.625   +05 50 00.46  .02345 1.0008 101.2 19.2 .627 178
2020 10 19 08  20 17 30.446   +06 15 45.88  .02341 1.0007 101.1 19.2 .645 177
2020 10 19 09  20 16 37.999   +06 41 36.53  .02337 1.0006 100.9 19.2 .663 176
2020 10 19 10  20 15 45.285   +07 07 32.18  .02333 1.0005 100.7 19.2 .683 175
2020 10 19 11  20 14 52.302   +07 33 32.63  .02329 1.0004 100.5 19.2 .703 174
2020 10 19 12  20 13 59.049   +07 59 37.63  .02325 1.0004 100.3 19.2 .724 173
2020 10 19 13  20 13 05.527   +08 25 46.97  .02322 1.0003 100.1 19.2 .745 173
2020 10 19 14  20 12 11.734   +08 52 00.41  .02319 1.0002  99.9 19.2 .768 172
2020 10 19 15  20 11 17.670   +09 18 17.72  .02316 1.0001  99.8 19.2 .791 171
2020 10 19 16  20 10 23.334   +09 44 38.64  .02313 1.0000  99.6 19.2 .814 171
2020 10 19 17  20 09 28.726   +10 11 02.93  .02310 0.9999  99.4 19.2 .839 170
2020 10 19 18  20 08 33.846   +10 37 30.35  .02307 0.9998  99.2 19.2 .864 169
2020 10 19 19  20 07 38.692   +11 04 00.63  .02305 0.9997  99.0 19.2 .890 169
2020 10 19 20  20 06 43.264   +11 30 33.53  .02303 0.9996  98.8 19.2 .916 168
2020 10 19 21  20 05 47.562   +11 57 08.78  .02301 0.9995  98.6 19.3 .943 168
2020 10 19 22  20 04 51.585   +12 23 46.12  .02299 0.9994  98.4 19.3 .971 167
2020 10 19 23  20 03 55.334   +12 50 25.28  .02297 0.9993  98.2 19.3 1.00 166
2020 10 20 00  20 02 58.807   +13 17 06.00  .02295 0.9992  98.0 19.3 1.03 166
2020 10 20 01  20 02 02.005   +13 43 48.01  .02294 0.9992  97.8 19.3 1.06 165
2020 10 20 02  20 01 04.926   +14 10 31.02  .02293 0.9991  97.6 19.3 1.09 165
2020 10 20 03  20 00 07.572   +14 37 14.78  .02292 0.9990  97.4 19.3 1.12 165
2020 10 20 04  19 59 09.941   +15 03 59.00  .02291 0.9989  97.2 19.3 1.15 164
2020 10 20 05  19 58 12.034   +15 30 43.41  .02290 0.9988  97.1 19.3 1.18 164
2020 10 20 06  19 57 13.851   +15 57 27.72  .02290 0.9987  96.9 19.3 1.21 163
2020 10 20 07  19 56 15.390   +16 24 11.67  .02289 0.9986  96.7 19.3 1.25 163
2020 10 20 08  19 55 16.653   +16 50 54.96  .02289 0.9985  96.5 19.3 1.28 162
2020 10 20 09  19 54 17.639   +17 17 37.33  .02289 0.9984  96.3 19.3 1.32 162
2020 10 20 10  19 53 18.348   +17 44 18.49  .02290 0.9983  96.1 19.3 1.35 162
2020 10 20 11  19 52 18.781   +18 10 58.17  .02290 0.9983  95.9 19.3 1.38 161
2020 10 20 12  19 51 18.937   +18 37 36.08  .02290 0.9982  95.7 19.3 1.42 161
2020 10 20 13  19 50 18.816   +19 04 11.94  .02291 0.9981  95.5 19.4 1.46 161
2020 10 20 14  19 49 18.419   +19 30 45.49  .02292 0.9980  95.3 19.4 1.49 160
2020 10 20 15  19 48 17.746   +19 57 16.43  .02293 0.9979  95.1 19.4 1.53 160
2020 10 20 16  19 47 16.798   +20 23 44.51  .02294 0.9978  94.9 19.4 1.57 160
2020 10 20 17  19 46 15.573   +20 50 09.45  .02296 0.9977  94.7 19.4 1.61 159
2020 10 20 18  19 45 14.074   +21 16 30.97  .02297 0.9976  94.5 19.4 1.64 159
2020 10 20 19  19 44 12.300   +21 42 48.81  .02299 0.9976  94.3 19.4 1.68 159
2020 10 20 20  19 43 10.252   +22 09 02.71  .02301 0.9975  94.1 19.4 1.72 158
2020 10 20 21  19 42 07.930   +22 35 12.39  .02303 0.9974  93.9 19.4 1.76 158
2020 10 20 22  19 41 05.334   +23 01 17.61  .02305 0.9973  93.7 19.4 1.80 158